This demonstration page uses our WeatherBlox Daily Observations layout. Learn more.

Left ArrowRight Arrow

40.92945, -100.16068

Hourly Observations for April 6, 2015

Temp ( °F °C ) Dew Point ( °F °C ) Humidity (%) Winds ( mph kmh ) Pressure ( in mb ) Visibility ( mi km ) Precip ( " mm )
12:15 am 00:15 Clear 54 12 46 8 77 77 SE 15 24 29.68 1005 10 16 N/A
12:35 am 00:35 Clear 54 12 47 8.5 79 79 SE 14 22 29.68 1005 10 16 N/A
12:55 am 00:55 Clear 53 11.5 47 8.5 82 82 SE 13 20 29.68 1005 10 16 N/A
1:15 am 01:15 Clear 52 11 47 8.4 84 84 SE 13 20 29.68 1005 10 16 N/A
1:35 am 01:35 Clear 51 10.6 47 8.3 86 86 SE 12 19 29.68 1005 10 16 N/A
1:55 am 01:55 Clear 51 10.6 47 8.5 87 87 SE 13 20 29.68 1005 10 16 N/A
2:15 am 02:15 Clear 51 10.4 47 8.5 88 88 SE 14 22 29.65 1004 10 16 N/A
2:35 am 02:35 Clear 50 10.1 47 8.5 90 90 SSE 14 22 29.71 1006 10 16 N/A
2:55 am 02:55 Mostly Cloudy 50 10.1 47 8.6 91 91 SSE 15 24 29.71 1006 10 16 N/A
3:15 am 03:15 Cloudy 50 10.1 48 8.8 92 92 SE 15 24 29.65 1004 10 16 N/A
3:35 am 03:35 Cloudy 51 10.5 49 9.2 92 92 SSE 13 20 29.68 1005 7 11 N/A
3:55 am 03:55 Cloudy with Mist and Fog 51 10.6 49 9.6 94 94 SSE 17 28 29.65 1004 5 8 N/A
4:15 am 04:15 Cloudy with Mist and Fog 51 10.7 49 9.7 94 94 SSE 16 26 29.68 1005 5 8 N/A
4:35 am 04:35 Cloudy with Mist and Fog 51 10.8 50 9.9 94 94 SSE 15 24 29.65 1004 5 8 N/A
4:55 am 04:55 Cloudy with Mist and Fog 52 11 50 10.1 94 94 SSE 13 20 29.65 1004 4 6 N/A
5:15 am 05:15 Cloudy with Mist and Fog 52 11.2 51 10.5 96 96 SSE 13 20 29.65 1004 5 8 N/A
5:35 am 05:35 Cloudy with Mist and Fog 53 11.5 51 10.5 94 94 SSE 10 17 29.65 1004 5 8 N/A
5:55 am 05:55 Cloudy with Mist and Fog 53 11.6 51 10.6 94 94 SSE 9 15 29.65 1004 5 8 N/A
6:15 am 06:15 Cloudy 53 11.8 51 10.7 93 93 S 9 15 29.65 1004 7 11 N/A
6:35 am 06:35 Cloudy 54 12.1 51 10.8 92 92 SSE 8 13 29.65 1004 7 11 N/A
6:55 am 06:55 Cloudy 54 12.1 51 10.8 92 92 SSE 9 15 29.65 1004 7 11 N/A
7:15 am 07:15 Cloudy 54 12.1 51 10.8 92 92 SSE 7 11 29.68 1005 7 11 N/A
7:35 am 07:35 Cloudy with Mist and Fog 54 12.2 52 11 92 92 ENE 5 7 29.68 1005 5 8 N/A
7:55 am 07:55 Cloudy with Mist and Fog 54 12.1 51 10.7 91 91 NE 8 13 29.68 1005 4 6 N/A
8:15 am 08:15 Cloudy with Mist and Fog 54 12.1 52 10.9 92 92 ENE 7 11 29.68 1005 4 6 N/A
8:35 am 08:35 Cloudy with Mist and Fog 54 12.2 52 11 92 92 E 8 13 29.68 1005 4 6 N/A
8:55 am 08:55 Cloudy with Mist and Fog 55 12.5 52 11.2 92 92 E 9 15 29.68 1005 4 6 N/A
9:15 am 09:15 Cloudy with Mist and Fog 54 12.4 52 11.1 92 92 E 9 15 29.68 1005 3 5 N/A
9:35 am 09:35 Cloudy with Mist and Fog 54 12 52 11.1 94 94 E 10 17 29.68 1005 2 2 N/A
9:55 am 09:55 Cloudy with Mist and Fog 53 11.8 52 11 95 95 E 9 15 29.68 1005 1 1 N/A
10:15 am 10:15 Cloudy with Mist and Fog 54 12.1 52 11.2 94 94 ESE 9 15 29.71 1006 4 6 N/A
10:35 am 10:35 Cloudy with Mist and Fog 54 12.2 52 11.2 94 94 E 10 17 29.71 1006 4 6 N/A
10:55 am 10:55 Cloudy with Mist and Fog 55 12.5 52 11.2 92 92 E 8 13 29.71 1006 5 8 N/A
11:15 am 11:15 Cloudy with Mist and Fog 55 12.5 52 11.1 91 91 ESE 7 11 29.71 1006 5 8 N/A
11:35 am 11:35 Cloudy with Mist and Fog 55 12.7 52 11.3 91 91 E 8 13 29.71 1006 5 8 N/A
11:55 am 11:55 Cloudy 55 12.9 52 11.2 90 90 ESE 6 9 29.71 1006 7 11 N/A
12:15 pm 12:15 Cloudy 56 13.2 52 11.3 88 88 E 3 6 29.71 1006 7 11 N/A
12:35 pm 12:35 Cloudy 57 13.7 52 11.1 84 84 N N/A 29.68 1005 7 11 N/A
12:55 pm 12:55 Cloudy 57 14 52 11.1 83 83 N N/A 29.68 1005 10 16 N/A
1:15 pm 13:15 Cloudy 58 14.3 52 11.1 81 81 E 7 11 29.68 1005 10 16 N/A
1:35 pm 13:35 Cloudy 58 14.6 52 11.3 81 81 NE 5 7 29.68 1005 10 16 N/A
1:55 pm 13:55 Cloudy 59 15.1 51 10.7 75 75 NE 8 13 29.68 1005 10 16 N/A
2:15 pm 14:15 Cloudy 59 15.1 51 10.6 75 75 NE 8 13 29.68 1005 10 16 N/A
2:35 pm 14:35 Cloudy 59 15 51 10.5 75 75 NNE 12 19 29.71 1006 10 16 N/A
2:55 pm 14:55 Cloudy 59 15.2 51 10.3 73 73 NNE 10 17 29.71 1006 10 16 N/A
3:15 pm 15:15 Cloudy 60 15.5 51 10.3 71 71 NNE 10 17 29.71 1006 10 16 N/A
3:35 pm 15:35 Cloudy 56 13.2 49 9.2 77 77 N 17 28 29.74 1007 10 16 N/A
3:55 pm 15:55 Cloudy 54 12.2 47 8.6 79 79 N 17 28 29.74 1007 10 16 N/A
4:15 pm 16:15 Cloudy 53 11.9 47 8.2 78 78 N 18 30 29.74 1007 10 16 N/A
4:35 pm 16:35 Cloudy 52 11.3 46 7.8 79 79 N 18 30 29.74 1007 10 16 N/A
4:55 pm 16:55 Cloudy 51 10.8 46 7.6 81 81 NNE 16 26 29.74 1007 10 16 N/A
5:20 pm 17:20 Cloudy 51 10.6 46 7.6 82 82 N 16 26 29.74 1007 10 16 N/A
5:40 pm 17:40 Cloudy 51 10.6 46 7.7 82 82 N 16 26 29.74 1007 10 16 N/A
5:55 pm 17:55 Cloudy 51 10.5 46 7.7 83 83 NNE 16 26 29.74 1007 10 16 N/A
6:15 pm 18:15 Cloudy 50 10.1 46 7.5 84 84 NNE 18 30 29.77 1008 10 16 N/A
6:35 pm 18:35 Cloudy 49 9.7 45 7.4 86 86 NNE 17 28 29.80 1009 10 16 N/A
7:00 pm 19:00 Cloudy 49 9.2 45 7 86 86 NNE 16 26 29.80 1009 10 16 N/A
7:20 pm 19:20 Cloudy 48 8.7 44 6.7 87 87 NNE 16 26 29.80 1009 10 16 N/A
7:35 pm 19:35 Cloudy 47 8.5 44 6.6 88 88 NNE 18 30 29.80 1009 7 11 N/A
7:55 pm 19:55 Cloudy with Mist and Fog 47 8.5 44 6.8 89 89 NNE 17 28 29.80 1009 5 8 N/A
8:15 pm 20:15 Cloudy with Mist and Fog 47 8.5 45 7 90 90 NE 17 28 29.80 1009 4 6 N/A
8:35 pm 20:35 Cloudy with Mist and Fog 47 8.5 45 7.1 91 91 NE 15 24 29.80 1009 5 8 N/A
8:55 pm 20:55 Cloudy 47 8.6 45 7.3 92 92 NE 13 20 29.80 1009 10 16 N/A
9:15 pm 21:15 Cloudy 47 8.5 45 7.3 92 92 NE 10 17 29.80 1009 7 11 N/A
9:35 pm 21:35 Cloudy 47 8.5 46 7.5 94 94 NE 14 22 29.80 1009 10 16 N/A
9:55 pm 21:55 Cloudy 48 8.7 46 7.6 93 93 NE 12 19 29.80 1009 10 16 N/A
10:15 pm 22:15 Cloudy 48 9 46 7.7 92 92 ENE 12 19 29.83 1010 10 16 N/A
10:35 pm 22:35 Cloudy with Mist and Fog 48 9.1 46 8 93 93 ENE 10 17 29.83 1010 4 6 N/A
10:55 pm 22:55 Cloudy with Mist and Fog 48 9.1 47 8.2 94 94 ENE 9 15 29.83 1010 3 5 N/A
11:15 pm 23:15 Cloudy with Mist and Fog 49 9.2 47 8.5 95 95 ENE 8 13 29.83 1010 5 8 N/A
11:35 pm 23:35 Cloudy with Mist and Fog 49 9.7 48 9 95 95 ENE 10 17 29.83 1010 2 3 N/A
11:55 pm 23:55 Cloudy with Mist and Fog 50 10 49 9.2 95 95 ENE 14 22 29.80 1009 2 3 N/A

Powered by AerisWeather